PROBA-1 1 26958U 01049B 21066.52504002 -.00000011 00000-0 43732-5 0 9994 2 26958 97.7578 23.9380 0074151 101.5540 259.3996 14.95646011 54676 BIRD 2 1 26959U 01049C 21065.86532510 .00002299 00000-0 62663-4 0 9998 2 26959 97.8096 122.8015 0006565 235.7484 124.3139 15.38623882381209 CUTE-1 (CO-55) 1 27844U 03031E 21065.76788981 .00000074 00000-0 52903-4 0 9994 2 27844 98.6831 75.5263 0010216 22.5652 337.5973 14.22292372917381 CUBESAT XI-IV (CO-57) 1 27848U 03031J 21065.87134933 .00000055 00000-0 44765-4 0 9998 2 27848 98.6889 76.1961 0010324 34.7471 325.4379 14.21871492917239 GENESIS 1 1 29252U 06029A 21066.21931468 .00000576 00000-0 37560-4 0 9999 2 29252 64.5219 161.9402 0032180 335.6208 24.3391 15.18505758808073 FALCONSAT-3 1 30776U 07006E 21066.21483035 .00005717 00000-0 14181-3 0 9995 2 30776 35.4355 36.8272 0001469 19.4370 340.6414 15.39774080777335 GENESIS 2 1 31789U 07028A 21066.12549348 .00000913 00000-0 55051-4 0 9999 2 31789 64.5069 204.4046 0023154 211.8166 148.1559 15.17651776755028 APRIZESAT 4 1 35684U 09041D 21066.22389819 .00000119 00000-0 23403-4 0 9994 2 35684 98.3026 59.0680 0048127 51.0689 309.4796 14.79342734626034 APRIZESAT 3 1 35686U 09041F 21066.15901641 .00000110 00000-0 18502-4 0 9996 2 35686 98.1469 136.6867 0071383 271.9161 87.3880 14.87474817629184 PROBA-2 1 36037U 09059B 21065.97258205 .00000015 00000-0 14429-4 0 9994 2 36037 98.2239 256.4263 0014602 108.8707 251.4074 14.53142690601450 APRIZESAT 5 1 37792U 11044E 21066.55371070 .00000094 00000-0 21843-4 0 9996 2 37792 98.3896 281.4623 0059087 51.2144 309.4320 14.75462857514296 APRIZESAT 6 1 37793U 11044F 21066.50653980 .00000094 00000-0 23228-4 0 9994 2 37793 98.4305 256.7774 0048105 91.9823 290.4611 14.72517582513293 TET-1 1 38710U 12039D 21066.07463456 .00005786 00000-0 92979-4 0 9990 2 38710 97.5709 114.1864 0001234 16.1135 344.0157 15.53452081484622 PROBA-V 1 39159U 13021A 21066.41316360 -.00000029 00000-0 56907-5 0 9997 2 39159 98.4237 119.1756 0004606 30.8325 329.3123 14.22996885406905 STPSAT-3 1 39380U 13064A 21065.73105126 .00001704 00000-0 49987-4 0 9999 2 39380 40.5005 318.7575 0001334 139.8996 220.1918 15.38350679407170 APRIZESAT 7 1 39416U 13066A 21065.93470163 .00000136 00000-0 22133-4 0 9991 2 39416 97.5346 65.9732 0042660 98.4865 262.1188 14.84043517394695 APRIZESAT 8 1 39425U 13066K 21065.95987859 .00000123 00000-0 21772-4 0 9992 2 39425 97.5742 56.4934 0052983 131.5569 229.0205 14.81250921394028 BUGSAT-1 (TITA) 1 40014U 14033E 21066.20121207 .00000229 00000-0 26079-4 0 9991 2 40014 98.1003 42.1803 0032194 141.0775 219.2775 14.95652756366282 SAUDISAT 4 1 40016U 14033G 21065.82203912 .00000065 00000-0 16685-4 0 9994 2 40016 97.6798 280.5416 0047418 215.9272 143.8747 14.75336021361441 APRIZESAT 9 1 40018U 14033J 21066.48736775 .00000057 00000-0 17204-4 0 9996 2 40018 97.6980 257.9728 0069927 273.0656 86.2551 14.70031154360176 APRIZESAT 10 1 40019U 14033K 21066.45878373 .00000040 00000-0 15263-4 0 9990 2 40019 97.7277 247.2286 0083049 307.9848 51.3877 14.67086906359509 TDS 1 1 40076U 14037H 21065.81807960 .00000440 00000-0 59133-4 0 9998 2 40076 98.4454 267.2892 0007816 132.4980 227.6894 14.84667217360304 TIANTUO 2 1 40144U 14053B 21066.51120394 .00001478 00000-0 45259-4 0 9995 2 40144 97.2281 150.7431 0013390 83.9123 287.3703 15.35314171363415 TECHNOSAT 1 42829U 17042E 21066.46375578 .00000382 00000-0 43610-4 0 9990 2 42829 97.4850 301.3244 0015402 124.2323 236.0358 14.91230252198482 FLYING LAPTOP 1 42831U 17042G 21066.03558928 -.00000260 00000-0 -20828-4 0 9991 2 42831 97.4864 301.1139 0015320 125.4207 234.8448 14.91248202198428 HAWK-A 1 43765U 18099H 21065.62675475 .00000361 00000-0 37030-4 0 9995 2 43765 97.6723 139.1924 0015857 46.5927 313.6513 14.96245401123171 HAWK-B 1 43794U 18099AN 21065.42653482 .00000484 00000-0 47901-4 0 9993 2 43794 97.6734 138.9977 0016122 44.8540 315.3981 14.96244559123135 HAWK-C 1 43799U 18099AT 21066.16199114 .00000331 00000-0 34337-4 0 9997 2 43799 97.6731 139.6350 0016002 42.5403 317.7055 14.96247790123240 SALSAT 1 46495U 20068K 21065.89715385 .00001301 00000-0 99988-4 0 9996 2 46495 97.6849 4.0566 0018018 61.3773 298.9262 15.03372359 23921